owner,sensor,date,latitude,longitude,air_temperature,qcFlag 
NDBC,ioos:station:NOAA.NDBC:PTAT2:1,2019-01-01T00:00:00Z,27.8260,-97.0510,13.5,1111122 
NDBC,ioos:station:NOAA.NDBC:PTAT2:1,2019-01-01T01:00:00Z,27.8260,-97.0510,13.7,1111122 
NDBC,ioos:station:NOAA.NDBC:PTAT2:1,2019-01-01T02:00:00Z,27.8260,-97.0510,13.7,1111122 
NDBC,ioos:station:NOAA.NDBC:PTAT2:1,2019-01-01T04:00:00Z,27.8260,-97.0510,14.1,1111122 
NDBC,ioos:station:NOAA.NDBC:PTAT2:1,2019-01-01T05:00:00Z,27.8260,-97.0510,14.1,1111122 
NDBC,ioos:station:NOAA.NDBC:PTAT2:1,2019-01-01T06:00:00Z,27.8260,-97.0510,14.2,1111122 
NDBC,ioos:station:NOAA.NDBC:PTAT2:1,2019-01-01T07:00:00Z,27.8260,-97.0510,13.3,1111122 
NDBC,ioos:station:NOAA.NDBC:PTAT2:1,2019-01-01T08:00:00Z,27.8260,-97.0510,13.2,1111122 
NDBC,ioos:station:NOAA.NDBC:PTAT2:1,2019-01-01T09:00:00Z,27.8260,-97.0510,12.2,1111122 
NDBC,ioos:station:NOAA.NDBC:PTAT2:1,2019-01-01T10:00:00Z,27.8260,-97.0510,11.6,1111122 
NDBC,ioos:station:NOAA.NDBC:PTAT2:1,2019-01-01T11:00:00Z,27.8260,-97.0510,11.6,1111122 
NDBC,ioos:station:NOAA.NDBC:PTAT2:1,2019-01-01T12:00:00Z,27.8260,-97.0510,11.1,1111122 
NDBC,ioos:station:NOAA.NDBC:PTAT2:1,2019-01-01T13:00:00Z,27.8260,-97.0510,11.0,1111122 
NDBC,ioos:station:NOAA.NDBC:PTAT2:1,2019-01-01T15:00:00Z,27.8260,-97.0510,11.5,1111122 
NDBC,ioos:station:NOAA.NDBC:PTAT2:1,2019-01-01T16:00:00Z,27.8260,-97.0510,11.9,1111122 
NDBC,ioos:station:NOAA.NDBC:PTAT2:1,2019-01-01T17:00:00Z,27.8260,-97.0510,12.1,1111122 
NDBC,ioos:station:NOAA.NDBC:PTAT2:1,2019-01-01T18:00:00Z,27.8260,-97.0510,12.7,1111122 
NDBC,ioos:station:NOAA.NDBC:PTAT2:1,2019-01-01T19:00:00Z,27.8260,-97.0510,13.9,1111122 
NDBC,ioos:station:NOAA.NDBC:PTAT2:1,2019-01-01T20:00:00Z,27.8260,-97.0510,14.4,1111122 
NDBC,ioos:station:NOAA.NDBC:PTAT2:1,2019-01-01T21:00:00Z,27.8260,-97.0510,14.9,1111122 
NDBC,ioos:station:NOAA.NDBC:PTAT2:1,2019-01-01T22:00:00Z,27.8260,-97.0510,15.0,1111122 
NDBC,ioos:station:NOAA.NDBC:PTAT2:1,2019-01-01T23:00:00Z,27.8260,-97.0510,15.0,1111122 
NDBC,ioos:station:NOAA.NDBC:PTAT2:1,2019-01-02T00:00:00Z,27.8260,-97.0510,14.8,1111122 
NDBC,ioos:station:NOAA.NDBC:PTAT2:1,2019-01-02T01:00:00Z,27.8260,-97.0510,14.9,1111122 
NDBC,ioos:station:NOAA.NDBC:PTAT2:1,2019-01-02T03:00:00Z,27.8260,-97.0510,12.8,1111122 
NDBC,ioos:station:NOAA.NDBC:PTAT2:1,2019-01-02T04:00:00Z,27.8260,-97.0510,11.7,1111122 
NDBC,ioos:station:NOAA.NDBC:PTAT2:1,2019-01-02T05:00:00Z,27.8260,-97.0510,11.5,1111122 
NDBC,ioos:station:NOAA.NDBC:PTAT2:1,2019-01-02T06:00:00Z,27.8260,-97.0510,11.0,1111122 
NDBC,ioos:station:NOAA.NDBC:PTAT2:1,2019-01-02T07:00:00Z,27.8260,-97.0510,10.6,1111122 
NDBC,ioos:station:NOAA.NDBC:PTAT2:1,2019-01-02T08:00:00Z,27.8260,-97.0510,10.6,1111122 
NDBC,ioos:station:NOAA.NDBC:PTAT2:1,2019-01-02T09:00:00Z,27.8260,-97.0510,10.6,1111122 
NDBC,ioos:station:NOAA.NDBC:PTAT2:1,2019-01-02T10:00:00Z,27.8260,-97.0510,10.1,1111122 
NDBC,ioos:station:NOAA.NDBC:PTAT2:1,2019-01-02T11:00:00Z,27.8260,-97.0510,9.4,1111122 
NDBC,ioos:station:NOAA.NDBC:PTAT2:1,2019-01-02T12:00:00Z,27.8260,-97.0510,8.9,1111122 
NDBC,ioos:station:NOAA.NDBC:PTAT2:1,2019-01-02T13:00:00Z,27.8260,-97.0510,8.7,1111122 
NDBC,ioos:station:NOAA.NDBC:PTAT2:1,2019-01-02T14:00:00Z,27.8260,-97.0510,8.6,1111122 
NDBC,ioos:station:NOAA.NDBC:PTAT2:1,2019-01-02T15:00:00Z,27.8260,-97.0510,8.4,1111122 
NDBC,ioos:station:NOAA.NDBC:PTAT2:1,2019-01-02T16:00:00Z,27.8260,-97.0510,8.2,1111122 
NDBC,ioos:station:NOAA.NDBC:PTAT2:1,2019-01-02T17:00:00Z,27.8260,-97.0510,8.2,1111122 
NDBC,ioos:station:NOAA.NDBC:PTAT2:1,2019-01-02T18:00:00Z,27.8260,-97.0510,8.3,1111122 
NDBC,ioos:station:NOAA.NDBC:PTAT2:1,2019-01-02T19:00:00Z,27.8260,-97.0510,8.5,1111122 
NDBC,ioos:station:NOAA.NDBC:PTAT2:1,2019-01-02T20:00:00Z,27.8260,-97.0510,8.3,1111122 
NDBC,ioos:station:NOAA.NDBC:PTAT2:1,2019-01-02T21:00:00Z,27.8260,-97.0510,8.3,1111122 
NDBC,ioos:station:NOAA.NDBC:PTAT2:1,2019-01-02T22:00:00Z,27.8260,-97.0510,8.0,1111122 
NDBC,ioos:station:NOAA.NDBC:PTAT2:1,2019-01-02T23:00:00Z,27.8260,-97.0510,8.1,1111122 
NDBC,ioos:station:NOAA.NDBC:PTAT2:1,2019-01-03T01:00:00Z,27.8260,-97.0510,7.2,1111122 
NDBC,ioos:station:NOAA.NDBC:PTAT2:1,2019-01-03T02:00:00Z,27.8260,-97.0510,7.3,1111122 
NDBC,ioos:station:NOAA.NDBC:PTAT2:1,2019-01-03T03:00:00Z,27.8260,-97.0510,7.8,1111122 
NDBC,ioos:station:NOAA.NDBC:PTAT2:1,2019-01-03T04:00:00Z,27.8260,-97.0510,8.3,1111122 
NDBC,ioos:station:NOAA.NDBC:PTAT2:1,2019-01-03T05:00:00Z,27.8260,-97.0510,10.6,1111122 
NDBC,ioos:station:NOAA.NDBC:PTAT2:1,2019-01-03T06:00:00Z,27.8260,-97.0510,12.7,1111122 
NDBC,ioos:station:NOAA.NDBC:PTAT2:1,2019-01-03T07:00:00Z,27.8260,-97.0510,9.5,1111122 
NDBC,ioos:station:NOAA.NDBC:PTAT2:1,2019-01-03T08:00:00Z,27.8260,-97.0510,8.6,1111122 
NDBC,ioos:station:NOAA.NDBC:PTAT2:1,2019-01-03T09:00:00Z,27.8260,-97.0510,8.2,1111122 
NDBC,ioos:station:NOAA.NDBC:PTAT2:1,2019-01-03T10:00:00Z,27.8260,-97.0510,8.2,1111122 
NDBC,ioos:station:NOAA.NDBC:PTAT2:1,2019-01-03T11:00:00Z,27.8260,-97.0510,6.6,1111122 
NDBC,ioos:station:NOAA.NDBC:PTAT2:1,2019-01-03T12:00:00Z,27.8260,-97.0510,5.9,1111122 
NDBC,ioos:station:NOAA.NDBC:PTAT2:1,2019-01-03T14:00:00Z,27.8260,-97.0510,6.0,1111122 
NDBC,ioos:station:NOAA.NDBC:PTAT2:1,2019-01-03T15:00:00Z,27.8260,-97.0510,6.3,1111122 
NDBC,ioos:station:NOAA.NDBC:PTAT2:1,2019-01-03T16:00:00Z,27.8260,-97.0510,7.2,1111122 
NDBC,ioos:station:NOAA.NDBC:PTAT2:1,2019-01-03T17:00:00Z,27.8260,-97.0510,7.6,1111122 
NDBC,ioos:station:NOAA.NDBC:PTAT2:1,2019-01-03T18:00:00Z,27.8260,-97.0510,7.7,1111122 
NDBC,ioos:station:NOAA.NDBC:PTAT2:1,2019-01-03T19:00:00Z,27.8260,-97.0510,7.7,1111122 
NDBC,ioos:station:NOAA.NDBC:PTAT2:1,2019-01-03T20:00:00Z,27.8260,-97.0510,9.0,1111122 
NDBC,ioos:station:NOAA.NDBC:PTAT2:1,2019-01-03T21:00:00Z,27.8260,-97.0510,10.4,1111122 
NDBC,ioos:station:NOAA.NDBC:PTAT2:1,2019-01-03T22:00:00Z,27.8260,-97.0510,12.1,1111122 
NDBC,ioos:station:NOAA.NDBC:PTAT2:1,2019-01-03T23:00:00Z,27.8260,-97.0510,11.5,1111122 
NDBC,ioos:station:NOAA.NDBC:PTAT2:1,2019-01-04T00:00:00Z,27.8260,-97.0510,11.3,1111122 
NDBC,ioos:station:NOAA.NDBC:PTAT2:1,2019-01-04T01:00:00Z,27.8260,-97.0510,11.9,1111122 
NDBC,ioos:station:NOAA.NDBC:PTAT2:1,2019-01-04T02:00:00Z,27.8260,-97.0510,11.7,1111122 
NDBC,ioos:station:NOAA.NDBC:PTAT2:1,2019-01-04T03:00:00Z,27.8260,-97.0510,11.9,1111122 
NDBC,ioos:station:NOAA.NDBC:PTAT2:1,2019-01-04T05:00:00Z,27.8260,-97.0510,11.8,1111122 
NDBC,ioos:station:NOAA.NDBC:PTAT2:1,2019-01-04T06:00:00Z,27.8260,-97.0510,11.8,1111122 
NDBC,ioos:station:NOAA.NDBC:PTAT2:1,2019-01-04T07:00:00Z,27.8260,-97.0510,11.3,1111122 
NDBC,ioos:station:NOAA.NDBC:PTAT2:1,2019-01-04T08:00:00Z,27.8260,-97.0510,11.2,1111122 
NDBC,ioos:station:NOAA.NDBC:PTAT2:1,2019-01-04T09:00:00Z,27.8260,-97.0510,9.8,1111122 
NDBC,ioos:station:NOAA.NDBC:PTAT2:1,2019-01-04T10:00:00Z,27.8260,-97.0510,9.5,1111122 
NDBC,ioos:station:NOAA.NDBC:PTAT2:1,2019-01-04T11:00:00Z,27.8260,-97.0510,9.4,1111122 
NDBC,ioos:station:NOAA.NDBC:PTAT2:1,2019-01-04T12:00:00Z,27.8260,-97.0510,9.4,1111122 
NDBC,ioos:station:NOAA.NDBC:PTAT2:1,2019-01-04T13:00:00Z,27.8260,-97.0510,9.2,1111122 
NDBC,ioos:station:NOAA.NDBC:PTAT2:1,2019-01-04T14:00:00Z,27.8260,-97.0510,9.4,1111122 
NDBC,ioos:station:NOAA.NDBC:PTAT2:1,2019-01-04T15:00:00Z,27.8260,-97.0510,10.3,1111122 
NDBC,ioos:station:NOAA.NDBC:PTAT2:1,2019-01-04T16:00:00Z,27.8260,-97.0510,12.1,1111122 
NDBC,ioos:station:NOAA.NDBC:PTAT2:1,2019-01-04T17:00:00Z,27.8260,-97.0510,13.0,1111122 
NDBC,ioos:station:NOAA.NDBC:PTAT2:1,2019-01-04T18:00:00Z,27.8260,-97.0510,14.5,1111122 
NDBC,ioos:station:NOAA.NDBC:PTAT2:1,2019-01-04T19:00:00Z,27.8260,-97.0510,15.5,1111122 
NDBC,ioos:station:NOAA.NDBC:PTAT2:1,2019-01-04T20:00:00Z,27.8260,-97.0510,16.7,1111122 
NDBC,ioos:station:NOAA.NDBC:PTAT2:1,2019-01-04T21:00:00Z,27.8260,-97.0510,18.0,1111122 
NDBC,ioos:station:NOAA.NDBC:PTAT2:1,2019-01-04T22:00:00Z,27.8260,-97.0510,19.4,1111122 
NDBC,ioos:station:NOAA.NDBC:PTAT2:1,2019-01-04T23:00:00Z,27.8260,-97.0510,20.1,1111122 
NDBC,ioos:station:NOAA.NDBC:PTAT2:1,2019-01-05T00:00:00Z,27.8260,-97.0510,18.6,1111122 
NDBC,ioos:station:NOAA.NDBC:PTAT2:1,2019-01-05T01:00:00Z,27.8260,-97.0510,14.9,1111122 
NDBC,ioos:station:NOAA.NDBC:PTAT2:1,2019-01-05T02:00:00Z,27.8260,-97.0510,15.0,1111122 
NDBC,ioos:station:NOAA.NDBC:PTAT2:1,2019-01-05T03:00:00Z,27.8260,-97.0510,15.4,1111122 
NDBC,ioos:station:NOAA.NDBC:PTAT2:1,2019-01-05T04:00:00Z,27.8260,-97.0510,15.1,1111122 
NDBC,ioos:station:NOAA.NDBC:PTAT2:1,2019-01-05T05:00:00Z,27.8260,-97.0510,15.3,1111122 
NDBC,ioos:station:NOAA.NDBC:PTAT2:1,2019-01-05T06:00:00Z,27.8260,-97.0510,14.9,1111122 
NDBC,ioos:station:NOAA.NDBC:PTAT2:1,2019-01-05T07:00:00Z,27.8260,-97.0510,14.4,1111122 
NDBC,ioos:station:NOAA.NDBC:PTAT2:1,2019-01-05T09:00:00Z,27.8260,-97.0510,14.5,1111122 
NDBC,ioos:station:NOAA.NDBC:PTAT2:1,2019-01-05T10:00:00Z,27.8260,-97.0510,14.2,1111122 
NDBC,ioos:station:NOAA.NDBC:PTAT2:1,2019-01-05T11:00:00Z,27.8260,-97.0510,14.5,1111122 
NDBC,ioos:station:NOAA.NDBC:PTAT2:1,2019-01-05T12:00:00Z,27.8260,-97.0510,14.3,1111122 
NDBC,ioos:station:NOAA.NDBC:PTAT2:1,2019-01-05T13:00:00Z,27.8260,-97.0510,13.4,1111122 
NDBC,ioos:station:NOAA.NDBC:PTAT2:1,2019-01-05T15:00:00Z,27.8260,-97.0510,14.2,1111122 
NDBC,ioos:station:NOAA.NDBC:PTAT2:1,2019-01-05T16:00:00Z,27.8260,-97.0510,15.1,1111122 
NDBC,ioos:station:NOAA.NDBC:PTAT2:1,2019-01-05T17:00:00Z,27.8260,-97.0510,15.7,1111122 
NDBC,ioos:station:NOAA.NDBC:PTAT2:1,2019-01-05T18:00:00Z,27.8260,-97.0510,16.2,1111122 
NDBC,ioos:station:NOAA.NDBC:PTAT2:1,2019-01-05T19:00:00Z,27.8260,-97.0510,17.0,1111122 
NDBC,ioos:station:NOAA.NDBC:PTAT2:1,2019-01-05T20:00:00Z,27.8260,-97.0510,16.8,1111122 
NDBC,ioos:station:NOAA.NDBC:PTAT2:1,2019-01-05T21:00:00Z,27.8260,-97.0510,16.5,1111122 
NDBC,ioos:station:NOAA.NDBC:PTAT2:1,2019-01-05T22:00:00Z,27.8260,-97.0510,16.4,1111122 
NDBC,ioos:station:NOAA.NDBC:PTAT2:1,2019-01-05T23:00:00Z,27.8260,-97.0510,16.3,1111122 
NDBC,ioos:station:NOAA.NDBC:PTAT2:1,2019-01-06T00:00:00Z,27.8260,-97.0510,16.2,1111122 
NDBC,ioos:station:NOAA.NDBC:PTAT2:1,2019-01-06T01:00:00Z,27.8260,-97.0510,16.1,1111122 
NDBC,ioos:station:NOAA.NDBC:PTAT2:1,2019-01-06T03:00:00Z,27.8260,-97.0510,16.3,1111122 
NDBC,ioos:station:NOAA.NDBC:PTAT2:1,2019-01-06T04:00:00Z,27.8260,-97.0510,16.4,1111122 
NDBC,ioos:station:NOAA.NDBC:PTAT2:1,2019-01-06T05:00:00Z,27.8260,-97.0510,16.5,1111122 
NDBC,ioos:station:NOAA.NDBC:PTAT2:1,2019-01-06T06:00:00Z,27.8260,-97.0510,16.3,1111122 
NDBC,ioos:station:NOAA.NDBC:PTAT2:1,2019-01-06T07:00:00Z,27.8260,-97.0510,16.3,1111122 
NDBC,ioos:station:NOAA.NDBC:PTAT2:1,2019-01-06T08:00:00Z,27.8260,-97.0510,16.5,1111122 
NDBC,ioos:station:NOAA.NDBC:PTAT2:1,2019-01-06T09:00:00Z,27.8260,-97.0510,16.5,1111122 
NDBC,ioos:station:NOAA.NDBC:PTAT2:1,2019-01-06T10:00:00Z,27.8260,-97.0510,16.6,1111122 
NDBC,ioos:station:NOAA.NDBC:PTAT2:1,2019-01-06T11:00:00Z,27.8260,-97.0510,16.5,1111122 
NDBC,ioos:station:NOAA.NDBC:PTAT2:1,2019-01-06T12:00:00Z,27.8260,-97.0510,16.1,1111122 
NDBC,ioos:station:NOAA.NDBC:PTAT2:1,2019-01-06T13:00:00Z,27.8260,-97.0510,16.1,1111122 
NDBC,ioos:station:NOAA.NDBC:PTAT2:1,2019-01-06T14:00:00Z,27.8260,-97.0510,17.1,1111122 
NDBC,ioos:station:NOAA.NDBC:PTAT2:1,2019-01-06T15:00:00Z,27.8260,-97.0510,17.4,1111122 
NDBC,ioos:station:NOAA.NDBC:PTAT2:1,2019-01-06T17:00:00Z,27.8260,-97.0510,17.5,1111122 
NDBC,ioos:station:NOAA.NDBC:PTAT2:1,2019-01-06T19:00:00Z,27.8260,-97.0510,17.9,1111122 
NDBC,ioos:station:NOAA.NDBC:PTAT2:1,2019-01-06T20:00:00Z,27.8260,-97.0510,17.7,1111122 
NDBC,ioos:station:NOAA.NDBC:PTAT2:1,2019-01-06T21:00:00Z,27.8260,-97.0510,17.8,1111122 
NDBC,ioos:station:NOAA.NDBC:PTAT2:1,2019-01-06T22:00:00Z,27.8260,-97.0510,18.2,1111122 
NDBC,ioos:station:NOAA.NDBC:PTAT2:1,2019-01-06T23:00:00Z,27.8260,-97.0510,17.7,1111122 
NDBC,ioos:station:NOAA.NDBC:PTAT2:1,2019-01-07T00:00:00Z,27.8260,-97.0510,17.6,1111122 
NDBC,ioos:station:NOAA.NDBC:PTAT2:1,2019-01-07T01:00:00Z,27.8260,-97.0510,17.6,1111122 
NDBC,ioos:station:NOAA.NDBC:PTAT2:1,2019-01-07T02:00:00Z,27.8260,-97.0510,17.7,1111122 
NDBC,ioos:station:NOAA.NDBC:PTAT2:1,2019-01-07T03:00:00Z,27.8260,-97.0510,17.5,1111122 
NDBC,ioos:station:NOAA.NDBC:PTAT2:1,2019-01-07T04:00:00Z,27.8260,-97.0510,17.5,1111122 
NDBC,ioos:station:NOAA.NDBC:PTAT2:1,2019-01-07T05:00:00Z,27.8260,-97.0510,17.4,1111122 
NDBC,ioos:station:NOAA.NDBC:PTAT2:1,2019-01-07T06:00:00Z,27.8260,-97.0510,17.6,1111122 
NDBC,ioos:station:NOAA.NDBC:PTAT2:1,2019-01-07T09:00:00Z,27.8260,-97.0510,17.7,1111122 
NDBC,ioos:station:NOAA.NDBC:PTAT2:1,2019-01-07T10:00:00Z,27.8260,-97.0510,17.7,1111122 
NDBC,ioos:station:NOAA.NDBC:PTAT2:1,2019-01-07T11:00:00Z,27.8260,-97.0510,17.7,1111122 
NDBC,ioos:station:NOAA.NDBC:PTAT2:1,2019-01-07T12:00:00Z,27.8260,-97.0510,17.8,1111122 
NDBC,ioos:station:NOAA.NDBC:PTAT2:1,2019-01-07T13:00:00Z,27.8260,-97.0510,17.9,1111122 
NDBC,ioos:station:NOAA.NDBC:PTAT2:1,2019-01-07T14:00:00Z,27.8260,-97.0510,18.0,1111122 
NDBC,ioos:station:NOAA.NDBC:PTAT2:1,2019-01-07T16:00:00Z,27.8260,-97.0510,18.4,1111122 
NDBC,ioos:station:NOAA.NDBC:PTAT2:1,2019-01-07T17:00:00Z,27.8260,-97.0510,18.6,1111122 
NDBC,ioos:station:NOAA.NDBC:PTAT2:1,2019-01-07T18:00:00Z,27.8260,-97.0510,18.1,1111122 
NDBC,ioos:station:NOAA.NDBC:PTAT2:1,2019-01-07T19:00:00Z,27.8260,-97.0510,18.5,1111122 
NDBC,ioos:station:NOAA.NDBC:PTAT2:1,2019-01-07T20:00:00Z,27.8260,-97.0510,18.1,1111122 
NDBC,ioos:station:NOAA.NDBC:PTAT2:1,2019-01-07T21:00:00Z,27.8260,-97.0510,18.4,1111122 
NDBC,ioos:station:NOAA.NDBC:PTAT2:1,2019-01-07T22:00:00Z,27.8260,-97.0510,18.4,1111122 
NDBC,ioos:station:NOAA.NDBC:PTAT2:1,2019-01-07T23:00:00Z,27.8260,-97.0510,18.1,1111122 
NDBC,ioos:station:NOAA.NDBC:PTAT2:1,2019-01-08T00:00:00Z,27.8260,-97.0510,18.0,1111122 
NDBC,ioos:station:NOAA.NDBC:PTAT2:1,2019-01-08T02:00:00Z,27.8260,-97.0510,17.9,1111122 
NDBC,ioos:station:NOAA.NDBC:PTAT2:1,2019-01-08T04:00:00Z,27.8260,-97.0510,17.8,1111122 
NDBC,ioos:station:NOAA.NDBC:PTAT2:1,2019-01-08T05:00:00Z,27.8260,-97.0510,17.5,1111122 
NDBC,ioos:station:NOAA.NDBC:PTAT2:1,2019-01-08T06:00:00Z,27.8260,-97.0510,17.8,1111122 
NDBC,ioos:station:NOAA.NDBC:PTAT2:1,2019-01-08T07:00:00Z,27.8260,-97.0510,17.6,1111122 
NDBC,ioos:station:NOAA.NDBC:PTAT2:1,2019-01-08T08:00:00Z,27.8260,-97.0510,17.4,1111122 
NDBC,ioos:station:NOAA.NDBC:PTAT2:1,2019-01-08T09:00:00Z,27.8260,-97.0510,17.2,1111122 
NDBC,ioos:station:NOAA.NDBC:PTAT2:1,2019-01-08T10:00:00Z,27.8260,-97.0510,17.5,1111122 
NDBC,ioos:station:NOAA.NDBC:PTAT2:1,2019-01-08T11:00:00Z,27.8260,-97.0510,17.4,1111122 
NDBC,ioos:station:NOAA.NDBC:PTAT2:1,2019-01-08T12:00:00Z,27.8260,-97.0510,17.5,1111122 
NDBC,ioos:station:NOAA.NDBC:PTAT2:1,2019-01-08T13:00:00Z,27.8260,-97.0510,18.1,1111122 
NDBC,ioos:station:NOAA.NDBC:PTAT2:1,2019-01-08T14:00:00Z,27.8260,-97.0510,18.5,1111122 
NDBC,ioos:station:NOAA.NDBC:PTAT2:1,2019-01-08T15:00:00Z,27.8260,-97.0510,17.6,1111122 
NDBC,ioos:station:NOAA.NDBC:PTAT2:1,2019-01-08T16:00:00Z,27.8260,-97.0510,18.2,1111122 
NDBC,ioos:station:NOAA.NDBC:PTAT2:1,2019-01-08T17:00:00Z,27.8260,-97.0510,19.0,1111122 
NDBC,ioos:station:NOAA.NDBC:PTAT2:1,2019-01-08T18:00:00Z,27.8260,-97.0510,18.9,1111122 
NDBC,ioos:station:NOAA.NDBC:PTAT2:1,2019-01-08T19:00:00Z,27.8260,-97.0510,19.4,1111122 
NDBC,ioos:station:NOAA.NDBC:PTAT2:1,2019-01-08T20:00:00Z,27.8260,-97.0510,18.6,1111122 
NDBC,ioos:station:NOAA.NDBC:PTAT2:1,2019-01-08T21:00:00Z,27.8260,-97.0510,18.7,1111122 
NDBC,ioos:station:NOAA.NDBC:PTAT2:1,2019-01-08T22:00:00Z,27.8260,-97.0510,19.3,1111122 
NDBC,ioos:station:NOAA.NDBC:PTAT2:1,2019-01-08T23:00:00Z,27.8260,-97.0510,19.0,1111122 
NDBC,ioos:station:NOAA.NDBC:PTAT2:1,2019-01-09T00:00:00Z,27.8260,-97.0510,19.0,1111122 
NDBC,ioos:station:NOAA.NDBC:PTAT2:1,2019-01-09T02:00:00Z,27.8260,-97.0510,18.4,1111122 
NDBC,ioos:station:NOAA.NDBC:PTAT2:1,2019-01-09T03:00:00Z,27.8260,-97.0510,18.0,1111122 
NDBC,ioos:station:NOAA.NDBC:PTAT2:1,2019-01-09T04:00:00Z,27.8260,-97.0510,18.2,1111122 
NDBC,ioos:station:NOAA.NDBC:PTAT2:1,2019-01-09T05:00:00Z,27.8260,-97.0510,18.4,1111122 
NDBC,ioos:station:NOAA.NDBC:PTAT2:1,2019-01-09T06:00:00Z,27.8260,-97.0510,18.1,1111122 
NDBC,ioos:station:NOAA.NDBC:PTAT2:1,2019-01-09T07:00:00Z,27.8260,-97.0510,18.1,1111122 
NDBC,ioos:station:NOAA.NDBC:PTAT2:1,2019-01-09T08:00:00Z,27.8260,-97.0510,18.1,1111122 
NDBC,ioos:station:NOAA.NDBC:PTAT2:1,2019-01-09T09:00:00Z,27.8260,-97.0510,17.0,1111122 
NDBC,ioos:station:NOAA.NDBC:PTAT2:1,2019-01-09T10:00:00Z,27.8260,-97.0510,16.1,1111122 
NDBC,ioos:station:NOAA.NDBC:PTAT2:1,2019-01-09T11:00:00Z,27.8260,-97.0510,15.2,1111122 
NDBC,ioos:station:NOAA.NDBC:PTAT2:1,2019-01-09T12:00:00Z,27.8260,-97.0510,14.4,1111122 
NDBC,ioos:station:NOAA.NDBC:PTAT2:1,2019-01-09T13:00:00Z,27.8260,-97.0510,14.0,1111122 
NDBC,ioos:station:NOAA.NDBC:PTAT2:1,2019-01-09T14:00:00Z,27.8260,-97.0510,14.3,1111122 
NDBC,ioos:station:NOAA.NDBC:PTAT2:1,2019-01-09T15:00:00Z,27.8260,-97.0510,15.0,1111122 
NDBC,ioos:station:NOAA.NDBC:PTAT2:1,2019-01-09T18:00:00Z,27.8260,-97.0510,15.4,1111122 
NDBC,ioos:station:NOAA.NDBC:PTAT2:1,2019-01-09T19:00:00Z,27.8260,-97.0510,15.4,1111122 
NDBC,ioos:station:NOAA.NDBC:PTAT2:1,2019-01-09T20:00:00Z,27.8260,-97.0510,15.3,1111122 
NDBC,ioos:station:NOAA.NDBC:PTAT2:1,2019-01-09T21:00:00Z,27.8260,-97.0510,15.4,1111122 
NDBC,ioos:station:NOAA.NDBC:PTAT2:1,2019-01-09T22:00:00Z,27.8260,-97.0510,15.3,1111122 
NDBC,ioos:station:NOAA.NDBC:PTAT2:1,2019-01-09T23:00:00Z,27.8260,-97.0510,15.3,1111122 
NDBC,ioos:station:NOAA.NDBC:PTAT2:1,2019-01-10T00:00:00Z,27.8260,-97.0510,15.3,1111122 
NDBC,ioos:station:NOAA.NDBC:PTAT2:1,2019-01-10T01:00:00Z,27.8260,-97.0510,15.5,1111122 
NDBC,ioos:station:NOAA.NDBC:PTAT2:1,2019-01-10T03:00:00Z,27.8260,-97.0510,15.3,1111122 
NDBC,ioos:station:NOAA.NDBC:PTAT2:1,2019-01-10T04:00:00Z,27.8260,-97.0510,15.3,1111122 
NDBC,ioos:station:NOAA.NDBC:PTAT2:1,2019-01-10T05:00:00Z,27.8260,-97.0510,15.2,1111122 
NDBC,ioos:station:NOAA.NDBC:PTAT2:1,2019-01-10T06:00:00Z,27.8260,-97.0510,15.2,1111122 
NDBC,ioos:station:NOAA.NDBC:PTAT2:1,2019-01-10T07:00:00Z,27.8260,-97.0510,15.2,1111122 
NDBC,ioos:station:NOAA.NDBC:PTAT2:1,2019-01-10T08:00:00Z,27.8260,-97.0510,15.1,1111122 
NDBC,ioos:station:NOAA.NDBC:PTAT2:1,2019-01-10T09:00:00Z,27.8260,-97.0510,13.5,1111122 
NDBC,ioos:station:NOAA.NDBC:PTAT2:1,2019-01-10T10:00:00Z,27.8260,-97.0510,13.2,1111122 
NDBC,ioos:station:NOAA.NDBC:PTAT2:1,2019-01-10T11:00:00Z,27.8260,-97.0510,12.5,1111122 
NDBC,ioos:station:NOAA.NDBC:PTAT2:1,2019-01-10T12:00:00Z,27.8260,-97.0510,12.6,1111122 
NDBC,ioos:station:NOAA.NDBC:PTAT2:1,2019-01-10T13:00:00Z,27.8260,-97.0510,12.0,1111122 
NDBC,ioos:station:NOAA.NDBC:PTAT2:1,2019-01-10T14:00:00Z,27.8260,-97.0510,12.6,1111122 
NDBC,ioos:station:NOAA.NDBC:PTAT2:1,2019-01-10T15:00:00Z,27.8260,-97.0510,13.9,1111122 
NDBC,ioos:station:NOAA.NDBC:PTAT2:1,2019-01-10T16:00:00Z,27.8260,-97.0510,14.1,1111122 
NDBC,ioos:station:NOAA.NDBC:PTAT2:1,2019-01-10T17:00:00Z,27.8260,-97.0510,14.3,1111122 
NDBC,ioos:station:NOAA.NDBC:PTAT2:1,2019-01-10T18:00:00Z,27.8260,-97.0510,14.3,1111122 
NDBC,ioos:station:NOAA.NDBC:PTAT2:1,2019-01-10T19:00:00Z,27.8260,-97.0510,14.4,1111122 
NDBC,ioos:station:NOAA.NDBC:PTAT2:1,2019-01-10T20:00:00Z,27.8260,-97.0510,14.6,1111122 
NDBC,ioos:station:NOAA.NDBC:PTAT2:1,2019-01-10T21:00:00Z,27.8260,-97.0510,15.3,1111122 
NDBC,ioos:station:NOAA.NDBC:PTAT2:1,2019-01-10T22:00:00Z,27.8260,-97.0510,15.5,1111122 
NDBC,ioos:station:NOAA.NDBC:PTAT2:1,2019-01-10T23:00:00Z,27.8260,-97.0510,15.5,1111122 
NDBC,ioos:station:NOAA.NDBC:PTAT2:1,2019-01-11T00:00:00Z,27.8260,-97.0510,15.7,1111122 
NDBC,ioos:station:NOAA.NDBC:PTAT2:1,2019-01-11T01:00:00Z,27.8260,-97.0510,15.7,1111122 
NDBC,ioos:station:NOAA.NDBC:PTAT2:1,2019-01-11T02:00:00Z,27.8260,-97.0510,15.9,1111122 
NDBC,ioos:station:NOAA.NDBC:PTAT2:1,2019-01-11T03:00:00Z,27.8260,-97.0510,15.9,1111122 
NDBC,ioos:station:NOAA.NDBC:PTAT2:1,2019-01-11T04:00:00Z,27.8260,-97.0510,16.0,1111122 
NDBC,ioos:station:NOAA.NDBC:PTAT2:1,2019-01-11T05:00:00Z,27.8260,-97.0510,16.5,1111122 
NDBC,ioos:station:NOAA.NDBC:PTAT2:1,2019-01-11T07:00:00Z,27.8260,-97.0510,16.7,1111122 
NDBC,ioos:station:NOAA.NDBC:PTAT2:1,2019-01-11T08:00:00Z,27.8260,-97.0510,16.8,1111122 
NDBC,ioos:station:NOAA.NDBC:PTAT2:1,2019-01-11T09:00:00Z,27.8260,-97.0510,16.8,1111122 
NDBC,ioos:station:NOAA.NDBC:PTAT2:1,2019-01-11T10:00:00Z,27.8260,-97.0510,17.0,1111122 
NDBC,ioos:station:NOAA.NDBC:PTAT2:1,2019-01-11T11:00:00Z,27.8260,-97.0510,17.0,1111122 
NDBC,ioos:station:NOAA.NDBC:PTAT2:1,2019-01-11T12:00:00Z,27.8260,-97.0510,17.1,1111122 
NDBC,ioos:station:NOAA.NDBC:PTAT2:1,2019-01-11T14:00:00Z,27.8260,-97.0510,17.1,1111122 
NDBC,ioos:station:NOAA.NDBC:PTAT2:1,2019-01-11T15:00:00Z,27.8260,-97.0510,17.3,1111122 
NDBC,ioos:station:NOAA.NDBC:PTAT2:1,2019-01-11T16:00:00Z,27.8260,-97.0510,17.4,1111122 
NDBC,ioos:station:NOAA.NDBC:PTAT2:1,2019-01-11T17:00:00Z,27.8260,-97.0510,17.4,1111122 
NDBC,ioos:station:NOAA.NDBC:PTAT2:1,2019-01-11T18:00:00Z,27.8260,-97.0510,17.2,1111122 
NDBC,ioos:station:NOAA.NDBC:PTAT2:1,2019-01-11T19:00:00Z,27.8260,-97.0510,17.2,1111122 
NDBC,ioos:station:NOAA.NDBC:PTAT2:1,2019-01-11T20:00:00Z,27.8260,-97.0510,17.3,1111122 
NDBC,ioos:station:NOAA.NDBC:PTAT2:1,2019-01-11T21:00:00Z,27.8260,-97.0510,17.3,1111122 
NDBC,ioos:station:NOAA.NDBC:PTAT2:1,2019-01-11T22:00:00Z,27.8260,-97.0510,17.6,1111122 
NDBC,ioos:station:NOAA.NDBC:PTAT2:1,2019-01-11T23:00:00Z,27.8260,-97.0510,17.5,1111122 
NDBC,ioos:station:NOAA.NDBC:PTAT2:1,2019-01-12T00:00:00Z,27.8260,-97.0510,17.6,1111122 
NDBC,ioos:station:NOAA.NDBC:PTAT2:1,2019-01-12T02:00:00Z,27.8260,-97.0510,17.7,1111122 
NDBC,ioos:station:NOAA.NDBC:PTAT2:1,2019-01-12T03:00:00Z,27.8260,-97.0510,17.6,1111122 
NDBC,ioos:station:NOAA.NDBC:PTAT2:1,2019-01-12T04:00:00Z,27.8260,-97.0510,17.8,1111122 
NDBC,ioos:station:NOAA.NDBC:PTAT2:1,2019-01-12T05:00:00Z,27.8260,-97.0510,17.8,1111122 
NDBC,ioos:station:NOAA.NDBC:PTAT2:1,2019-01-12T06:00:00Z,27.8260,-97.0510,18.0,1111122 
NDBC,ioos:station:NOAA.NDBC:PTAT2:1,2019-01-12T07:00:00Z,27.8260,-97.0510,17.5,1111122 
NDBC,ioos:station:NOAA.NDBC:PTAT2:1,2019-01-12T08:00:00Z,27.8260,-97.0510,17.1,1111122 
NDBC,ioos:station:NOAA.NDBC:PTAT2:1,2019-01-12T09:00:00Z,27.8260,-97.0510,17.4,1111122 
NDBC,ioos:station:NOAA.NDBC:PTAT2:1,2019-01-12T10:00:00Z,27.8260,-97.0510,17.3,1111122 
NDBC,ioos:station:NOAA.NDBC:PTAT2:1,2019-01-12T11:00:00Z,27.8260,-97.0510,16.4,1111122 
NDBC,ioos:station:NOAA.NDBC:PTAT2:1,2019-01-12T12:00:00Z,27.8260,-97.0510,16.0,1111122 
NDBC,ioos:station:NOAA.NDBC:PTAT2:1,2019-01-12T14:00:00Z,27.8260,-97.0510,15.4,1111122 
NDBC,ioos:station:NOAA.NDBC:PTAT2:1,2019-01-12T15:00:00Z,27.8260,-97.0510,15.7,1111122 
NDBC,ioos:station:NOAA.NDBC:PTAT2:1,2019-01-12T16:00:00Z,27.8260,-97.0510,15.9,1111122 
NDBC,ioos:station:NOAA.NDBC:PTAT2:1,2019-01-12T17:00:00Z,27.8260,-97.0510,16.6,1111122 
NDBC,ioos:station:NOAA.NDBC:PTAT2:1,2019-01-12T18:00:00Z,27.8260,-97.0510,17.2,1111122 
NDBC,ioos:station:NOAA.NDBC:PTAT2:1,2019-01-12T19:00:00Z,27.8260,-97.0510,18.4,1111122 
NDBC,ioos:station:NOAA.NDBC:PTAT2:1,2019-01-12T20:00:00Z,27.8260,-97.0510,20.0,1111122 
NDBC,ioos:station:NOAA.NDBC:PTAT2:1,2019-01-12T21:00:00Z,27.8260,-97.0510,20.9,1111122 
NDBC,ioos:station:NOAA.NDBC:PTAT2:1,2019-01-12T22:00:00Z,27.8260,-97.0510,21.7,1111122 
NDBC,ioos:station:NOAA.NDBC:PTAT2:1,2019-01-12T23:00:00Z,27.8260,-97.0510,19.4,1111122 
NDBC,ioos:station:NOAA.NDBC:PTAT2:1,2019-01-13T00:00:00Z,27.8260,-97.0510,16.6,1111122 
NDBC,ioos:station:NOAA.NDBC:PTAT2:1,2019-01-13T02:00:00Z,27.8260,-97.0510,17.3,1111122 
NDBC,ioos:station:NOAA.NDBC:PTAT2:1,2019-01-13T03:00:00Z,27.8260,-97.0510,16.4,1111122 
NDBC,ioos:station:NOAA.NDBC:PTAT2:1,2019-01-13T04:00:00Z,27.8260,-97.0510,15.4,1111122 
NDBC,ioos:station:NOAA.NDBC:PTAT2:1,2019-01-13T05:00:00Z,27.8260,-97.0510,14.5,1111122 
NDBC,ioos:station:NOAA.NDBC:PTAT2:1,2019-01-13T06:00:00Z,27.8260,-97.0510,13.2,1111122 
NDBC,ioos:station:NOAA.NDBC:PTAT2:1,2019-01-13T07:00:00Z,27.8260,-97.0510,12.1,1111122 
NDBC,ioos:station:NOAA.NDBC:PTAT2:1,2019-01-13T08:00:00Z,27.8260,-97.0510,11.3,1111122 